Weather History for KAQW - September, 2013

Change the Weather History Date:

Tuesday, September 10, 2013

  Actual Average Record
Temperature  
Mean Temperature 66 °F -  
Max Temperature 78 °F 72 °F 88 °F (2002)
Min Temperature 55 °F 50 °F 42 °F (2005)
Cooling Degree Days 1    
Growing Degree Days 16 (Base 50)    
Moisture  
Dew Point 62 °F    
Average Humidity 89    
Maximum Humidity 100    
Minimum Humidity 66    
Precipitation  
Precipitation 0.89 in - - ()
Sea Level Pressure  
Sea Level Pressure 30.08 in    
Wind  
Wind Speed 3 mph (ESE)    
Max Wind Speed 9 mph    
Max Gust Speed -    
Visibility 7 miles    
Events Rain , Thunderstorm    
Averages and records for this station are not official NWS values.
T = Trace of Precipitation, MM = Missing Value Source: NWS Daily Summary

Daily Weather History Graph

Daily Weather History Graph

Search for Another Location

Airport or City:

Trip Planner

Search our weather history database for the weather conditions in past years. The results will help you decide how hot, cold, wet, or windy it might be!

Date:

Astronomy

Sep. 10, 2013 Rise Set
Actual Time 6:27 AM EDT 7:11 PM EDT
Civil Twilight 5:58 AM EDT 7:39 PM EDT
Nautical Twilight 5:24 AM EDT 8:13 PM EDT
Astronomical Twilight 4:49 AM EDT 8:48 PM EDT
Moon 11:58 AM EDT (9/10) 10:03 PM EDT (9/10)
Length of Visible Light 13h 40m
Length of Day
12h 43m
Waxing Crescent, 28% of the Moon is Illuminated
Sep 10
Waxing Crescent
Sep 12
First Quarter
Sep 19
Full
Sep 26
Last Quarter
Oct 4
New

Hourly Weather History & Observations

Time (EDT) Temp. Dew Point Humidity Pressure Visibility Wind Dir Wind Speed Gust Speed Precip Events Conditions
12:52 AM 55.9 °F 50.0 °F 80% 30.12 in 10.0 mi Calm Calm - N/A   Clear
1:52 AM 57.0 °F 51.1 °F 81% 30.12 in 10.0 mi Variable 3.5 mph - N/A   Mostly Cloudy
2:52 AM 57.9 °F 52.0 °F 81% 30.11 in 10.0 mi Variable 3.5 mph - N/A   Overcast
3:52 AM 59.0 °F 53.1 °F 81% 30.10 in 10.0 mi SE 5.8 mph - N/A   Overcast
4:12 AM 59.0 °F 53.6 °F 82% 30.10 in 10.0 mi SE 5.8 mph - N/A   Overcast
4:52 AM 59.0 °F 55.0 °F 87% 30.10 in 7.0 mi Variable 3.5 mph - 0.00 in Rain Light Rain
5:52 AM 59.0 °F 57.0 °F 93% 30.10 in 10.0 mi East 6.9 mph - 0.02 in   Overcast
6:52 AM 60.1 °F 57.9 °F 93% 30.10 in 10.0 mi ESE 3.5 mph - N/A   Overcast
7:21 AM 60.8 °F 59.0 °F 94% 30.10 in 10.0 mi ESE 4.6 mph - N/A   Overcast
7:52 AM 61.0 °F 59.0 °F 93% 30.09 in 10.0 mi Calm Calm - N/A   Overcast
8:48 AM 62.6 °F 60.8 °F 94% 30.08 in 8.0 mi ESE 3.5 mph - N/A   Overcast
8:52 AM 63.0 °F 61.0 °F 93% 30.09 in 8.0 mi Calm Calm - N/A   Overcast
9:00 AM 62.6 °F 60.8 °F 94% 30.09 in 8.0 mi Calm Calm - N/A   Overcast
9:08 AM 62.6 °F 62.6 °F 100% 30.10 in 8.0 mi Variable 3.5 mph - N/A   Overcast
9:36 AM 62.6 °F 60.8 °F 94% 30.09 in 5.0 mi East 4.6 mph - 0.01 in Rain , Thunderstorm Light Rain
9:49 AM 62.6 °F 60.8 °F 94% 30.12 in 1.5 mi Calm Calm - 0.14 in Rain , Thunderstorm Thunderstorms and Rain
9:52 AM 63.0 °F 62.1 °F 97% 30.14 in 0.8 mi Calm Calm - 0.27 in Rain , Thunderstorm Heavy Thunderstorms and Rain
10:10 AM 62.6 °F 62.6 °F 100% 30.10 in 1.0 mi NNE 9.2 mph - 0.49 in Rain , Thunderstorm Heavy Thunderstorms and Rain
10:12 AM 62.6 °F 62.6 °F 100% 30.10 in 1.5 mi Variable 4.6 mph - 0.50 in Rain , Thunderstorm Heavy Thunderstorms and Rain
10:25 AM 64.4 °F 62.6 °F 94% 30.11 in 3.0 mi Calm Calm - 0.54 in Rain , Thunderstorm Light Rain
10:41 AM 64.4 °F 62.6 °F 94% 30.07 in 4.0 mi ESE 6.9 mph - 0.56 in Rain Light Rain
10:52 AM 64.0 °F 64.0 °F 100% 30.04 in 4.0 mi Variable 4.6 mph - 0.58 in Rain Rain
11:34 AM 66.2 °F 64.4 °F 94% 30.05 in 10.0 mi Calm Calm - 0.02 in   Mostly Cloudy
11:52 AM 66.9 °F 66.0 °F 97% 30.04 in 10.0 mi East 4.6 mph - 0.02 in   Partly Cloudy
12:52 PM 71.1 °F 66.0 °F 84% 30.05 in 10.0 mi East 6.9 mph - N/A   Clear
1:52 PM 75.9 °F 64.9 °F 69% 30.05 in 10.0 mi West 4.6 mph - N/A   Scattered Clouds
2:52 PM 75.9 °F 64.9 °F 69% 30.04 in 10.0 mi Variable 4.6 mph - N/A   Scattered Clouds
3:52 PM 77.0 °F 64.9 °F 66% 30.02 in 10.0 mi Variable 4.6 mph - N/A   Clear
4:52 PM 77.0 °F 66.0 °F 69% 30.01 in 9.0 mi East 5.8 mph - N/A   Clear
5:52 PM 77.0 °F 66.9 °F 71% 30.01 in 9.0 mi SSE 4.6 mph - N/A   Clear
6:52 PM 73.9 °F 70.0 °F 87% 30.02 in 7.0 mi Calm Calm - N/A   Clear
7:52 PM 70.0 °F 68.0 °F 93% 30.04 in 5.0 mi Calm Calm - N/A   Clear
8:52 PM 68.0 °F 66.9 °F 96% 30.06 in 3.0 mi Calm Calm - N/A   Partly Cloudy
9:52 PM 70.0 °F 69.1 °F 97% 30.06 in 4.0 mi Calm Calm - N/A   Clear
10:52 PM 70.0 °F 70.0 °F 100% 30.07 in 4.0 mi NE 4.6 mph - N/A   Clear
11:52 PM 69.1 °F 68.0 °F 96% 30.06 in 3.0 mi Calm Calm - N/A   Clear